Terug naar catalogus

STARLINK-35662

ActiefCommunicatieVLEO
NORAD 66384·PAYLOAD·🇺🇸 United States

Gelanceerd Nov 8, 2025 vanaf Cape Canaveral Space Force Station

Loading…

Volgende Passages (komende 24 uur)

TLE

VersSource: CelesTrak SupGP

Epoch: Sep 14, 2026, 21:21 UTC

1 66384C 25257E   26257.89006944  .00072520  00000+0  21435-2 0  2579
2 66384  53.1582  55.7468 0000868  79.8455 353.4355 15.34342345    11

Volg STARLINK-35662 in realtime met AllMySat

Download on the App Store